Regional Weather Roundup
Issued by NWS Huntsville, AL

Home | Current Version | Previous Version | Text Only | Print | Product List | Glossary On
Versions: 1 2 3 4 5 6 7 8 9 10 11 12 13 14 15 16 17 18 19 20 21 22 23 24 25 26 27
000
ASUS44 KHUN 051510
RWRHUN

WEATHER ROUNDUP FOR THE TENNESSEE VALLEY
NATIONAL WEATHER SERVICE HUNTSVILLE AL
900 AM CST MON DEC 05 2016

ALZ001>004-051600-
NORTHWEST ALABAMA

CITY           SKY/WX    TMP DP  RH WIND       PRES   REMARKS
COURTLAND HCN    N/A     46 N/A N/A NE5         N/A
RUSSELLVILLE     N/A     46 N/A N/A MISG        N/A
SHOALS AIRPORT CLOUDY    47  44  90 NE6       30.03R
SHOALS TVA RES   N/A     46 N/A N/A MISG        N/A
$$

ALZ005>007-016-051600-
NORTH CENTRAL ALABAMA

CITY           SKY/WX    TMP DP  RH WIND       PRES   REMARKS
CULLMAN AG STN   N/A     48 N/A N/A NE6         N/A
DECATUR AP     CLOUDY    48  48 100 NE8       30.00F FOG
HUNTSVILLE AP  CLOUDY    50  48  93 NE8       30.00F FOG
MERIDIANVILLE  CLOUDY    46  45  93 N6        30.01  FOG
VINEMONT AP    CLOUDY    48  47  97 E6        30.01S FOG
$$

ALZ008>010-051600-
NORTHEAST ALABAMA

CITY           SKY/WX    TMP DP  RH WIND       PRES   REMARKS
ALBERTVILLE    CLOUDY    48  48 100 E5        29.99S FOG
FORT PAYNE     CLOUDY    48  45  87 CALM      30.00F
SCOTTSBORO AP  CLOUDY    48  48 100 NE6       30.02S
SCOTTSBORO HCN   N/A     50 N/A N/A MISG        N/A
VALLEY HEAD      N/A     48 N/A N/A MISG        N/A
$$

TNZ076-096-097-051600-
SOUTHEASTERN MIDDLE TENNESSEE

CITY           SKY/WX    TMP DP  RH WIND       PRES   REMARKS
TULLAHOMA      CLOUDY    45  45 100 NE5       30.03S
WINCHESTER     CLOUDY    46  45  93 N7        30.03S
$$

...SURROUNDING SITES...

CITY           SKY/WX    TMP DP  RH WIND       PRES   REMARKS
ATLANTA        CLOUDY    48  46  93 E5        30.02R FOG
ANNISTON       CLOUDY    50  47  89 NE7       30.01R
BIRMINGHAM     CLOUDY    50  49  96 E7        30.00S FOG
CHATTANOOGA    CLOUDY    50  45  83 NE6       30.04S FOG
CORINTH        CLOUDY    45  43  93 N8        30.02F FOG
DALTON         CLOUDY    46  46 100 N3        30.04R
GADSDEN        CLOUDY    48  46  93 NE8       30.02S
GOLDEN TRNGL   CLOUDY    48  45  87 E5        29.93F FOG
HALEYVILLE     CLOUDY    47  47 100 VRB5      30.01R FOG
JACKSON TN     CLOUDY    43  39  86 E6        30.05R
MEMPHIS        CLOUDY    43  40  89 E12       29.99F
NASHVILLE      CLOUDY    43  40  89 NE10      30.07S FOG
OXFORD MS      LGT RAIN  41  41 100 E8        30.00S
ROME           CLOUDY    48  46  93 NE3       30.02S FOG
SAVANNAH       CLOUDY    45  43  93 NE5       30.03R
TUPELO         CLOUDY    47  43  86 N10       30.00R
TUSCALOOSA     CLOUDY    53  51  93 NE9       29.95F
$$

...GULF COAST WEATHER...

CITY           SKY/WX    TMP DP  RH WIND       PRES   REMARKS
GULFPORT       CLOUDY    59  59 100 NE7       29.89S FOG
PASCAGOULA     CLOUDY    60  57  89 NE6       29.90R FOG
MOBILE         FOG       58  57  97 NE7       29.92R VSB 1/2
GULF SHORES    CLOUDY    66  66 100 NE8       29.90R
PENSACOLA      CLOUDY    67  65  93 E9        29.90R
DESTIN         PTSUNNY   72  67  84 E8        29.92R
APPALACHICOLA  CLOUDY    74  73  97 S14       29.93R
$$





USA.gov is the U.S. government's official web portal to all federal, state and local government web resources and services.